FW7467 Weather Reports


time (UTC)temp
C
wind
direction
speed
KPH
gust
KPH
rain 1hr
cm
rain 24hr
cm
rain mn
cm
humidity
%
barometer
mb
20260507211512 13 295 20.9 33.8 0.00 0.28 0.03 36 1004.6
20260507210006 13 290 12.9 30.6 0.00 0.30 0.03 38 1004.6
20260507204505 13 309 12.9 35.4 0.00 0.30 0.03 38 1004.5
20260507203007 13 298 9.7 25.7 0.00 0.30 0.03 38 1004.4
20260507201505 13 345 12.9 41.8 0.00 0.33 0.03 40 1004.4
20260507200004 13 298 12.9 30.6 0.00 0.33 0.03 39 1004.4
20260507194507 13 275 8.0 29.0 0.00 0.36 0.03 44 1004.4
20260507193029 14 283 9.7 24.1 0.00 0.41 0.03 41 1004.4
20260507191528 13 327 9.7 29.0 0.00 0.43 0.03 42 1004.5
20260507190027 14 277 16.1 24.1 0.00 0.48 0.03 39 1004.5
20260507184524 15 280 14.5 27.4 0.00 0.51 0.03 39 1004.6
20260507183027 15 317 11.3 20.9 0.00 0.53 0.03 42 1004.6
20260507181528 14 300 16.1 25.7 0.00 0.61 0.03 41 1004.7
20260507180026 14 254 3.2 25.7 0.00 0.79 0.03 43 1004.9
20260507174527 14 305 14.5 27.4 0.00 1.27 0.03 43 1005.0
20260507173038 13 254 8.0 17.7 0.00 1.45 0.03 43 1005.1
20260507171526 13 279 6.4 20.9 0.00 1.47 0.03 46 1005.1
20260507170026 13 276 8.0 22.5 0.00 1.47 0.03 53 1005.3
20260507164526 12 299 9.7 27.4 0.00 1.47 0.03 56 1005.6
20260507163027 13 319 8.0 22.5 0.00 1.47 0.03 57 1005.5
20260507161509 13 128 4.8 16.1 0.00 1.47 0.03 63 1005.4
20260507160007 13 297 8.0 16.1 0.00 1.47 0.03 59 1005.3
20260507154504 12 259 1.6 12.9 0.00 1.47 0.03 61 1005.5
20260507153006 12 294 4.8 16.1 0.00 1.47 0.03 63 1005.6
20260507151504 12 265 6.4 14.5 0.00 1.47 0.03 63 1005.9
20260507150006 12 36 8.0 17.7 0.00 1.47 0.03 64 1005.9
20260507144508 11 304 8.0 19.3 0.00 1.47 0.03 64 1005.9
20260507143009 12 296 6.4 16.1 0.00 1.47 0.03 65 1006.1
20260507141506 12 318 11.3 16.1 0.00 1.47 0.03 62 1006.1
20260507140007 12 279 1.6 12.9 0.00 1.47 0.03 63 1006.1
20260507134507 12 311 6.4 16.1 0.00 1.47 0.03 62 1006.2
20260507133004 12 26 1.6 17.7 0.00 1.47 0.03 65 1006.4
20260507131507 12 82 1.6 16.1 0.00 1.47 0.03 67 1006.6
20260507130010 11 109 0.0 20.9 0.00 1.47 0.03 70 1006.5
20260507124511 11 290 1.6 22.5 0.00 1.47 0.03 68 1006.6
20260507123009 11 304 4.8 20.9 0.00 1.47 0.03 69 1006.7
20260507121510 10 335 4.8 17.7 0.00 1.47 0.03 71 1006.7
20260507120009 10 289 4.8 17.7 0.00 1.47 0.03 74 1006.6
20260507114507 9 279 6.4 22.5 0.00 1.47 0.03 71 1006.8
20260507113013 8 311 8.0 14.5 0.00 1.47 0.03 74 1006.9
20260507111509 8 344 3.2 9.7 0.00 1.47 0.03 77 1007.0
20260507110011 7 360 3.2 9.7 0.00 1.47 0.03 81 1006.9
20260507104511 7 360 1.6 9.7 0.00 1.47 0.03 82 1007.0
20260507103010 6 360 3.2 9.7 0.00 1.47 0.03 82 1007.1
20260507101513 7 360 3.2 14.5 0.00 1.47 0.03 82 1006.8
20260507100017 7 360 3.2 6.4 0.00 1.47 0.03 79 1006.7
20260507094512 7 360 3.2 12.9 0.00 1.47 0.03 78 1006.7
20260507093019 7 360 3.2 12.9 0.00 1.47 0.03 78 1006.5
20260507091525 7 360 3.2 9.7 0.00 1.47 0.03 79 1006.5
20260507090019 7 360 1.6 6.4 0.00 1.47 0.03 79 1006.7
20260507084523 7 360 1.6 9.7 0.00 1.47 0.03 81 1006.7
20260507083017 7 360 1.6 4.8 0.00 1.47 0.03 81 1006.8
20260507081522 7 360 1.6 6.4 0.00 1.47 0.03 83 1006.3
20260507080016 7 360 1.6 12.9 0.00 1.47 0.03 83 1006.2
20260507074518 7 360 1.6 9.7 0.00 1.47 0.03 82 1006.2
20260507073016 7 360 3.2 17.7 0.00 1.47 0.03 82 1006.3
20260507071507 7 360 6.4 17.7 0.00 1.47 0.03 83 1006.5
20260507070010 7 360 4.8 17.7 0.00 1.47 0.03 84 1006.0
20260507064508 7 360 6.4 30.6 0.00 1.47 0.03 84 1006.1
20260507063003 7 360 8.0 24.1 0.00 1.47 0.03 86 1006.0
20260507061505 7 360 4.8 22.5 0.00 1.47 0.03 88 1005.5
20260507060005 7 360 9.7 22.5 0.00 1.47 0.03 88 1005.4
20260507054504 8 360 6.4 16.1 0.00 1.47 0.03 87 1005.5
20260507053004 8 360 4.8 20.9 0.00 1.47 0.03 87 1005.5
20260507051506 8 360 4.8 24.1 0.03 1.47 0.03 88 1005.1
20260507050007 8 360 4.8 17.7 0.03 1.47 0.03 90 1004.6
20260507044518 8 360 4.8 16.1 0.05 1.47 0.03 91 1004.9
20260507043005 8 360 4.8 12.9 0.05 1.47 0.03 92 1005.0
20260507041505 8 360 0.0 14.5 0.05 1.45 0.00 92 1005.1
20260507040007 8 360 3.2 14.5 0.05 1.45 0.00 91 1005.2
20260507034507 9 360 1.6 16.1 0.03 1.42 1.42 91 1005.2
20260507033004 9 360 0.0 14.5 0.05 1.42 1.42 92 1005.0
20260507031507 9 360 1.6 8.0 0.03 1.40 1.40 93 1004.7
20260507030016 10 360 3.2 12.9 0.05 1.40 1.40 93 1004.8
20260507024514 10 360 6.4 17.7 0.05 1.40 1.40 93 1004.6
20260507023015 10 360 6.4 24.1 0.03 1.37 1.37 93 1004.3
20260507021520 10 360 8.0 20.9 0.03 1.37 1.37 93 1004.3
20260507020014 11 360 4.8 16.1 0.00 1.32 1.32 92 1004.4
20260507014515 11 360 4.8 14.5 0.00 1.32 1.32 92 1004.1
20260507013016 12 360 3.2 17.7 0.00 1.32 1.32 92 1004.3
20260507011520 12 360 4.8 12.9 0.00 1.32 1.32 93 1004.0
20260507010025 12 360 1.6 9.7 0.00 1.32 1.32 95 1004.1
20260507004516 12 360 1.6 9.7 0.03 1.32 1.32 95 1004.0
20260507003026 12 360 3.2 12.9 0.03 1.32 1.32 94 1003.9
20260507001524 12 360 4.8 12.9 0.05 1.32 1.32 95 1003.7
20260507000019 13 355 1.6 8.0 0.08 1.32 1.32 95 1003.5
20260506234520 14 347 3.2 11.3 0.10 1.32 1.32 98 1003.4
20260506233020 15 153 11.3 20.9 0.13 1.32 1.32 98 1003.0
20260506231520 14 116 8.0 17.7 0.10 1.30 1.30 99 1003.2
20260506230021 14 130 3.2 6.4 0.08 1.27 1.27 98 1003.1
20260506224524 15 122 1.6 6.4 0.03 1.22 1.22 98 1003.4
20260506223023 15 104 3.2 11.3 0.00 1.19 1.19 98 1003.5
20260506221522 14 128 3.2 11.3 0.00 1.19 1.19 97 1003.7
20260506220020 14 128 3.2 11.3 0.03 1.22 1.19 97 1004.0
20260506214505 14 132 6.4 16.1 0.03 1.27 1.19 97 1004.3
20260506213005 15 139 11.3 19.3 0.03 1.27 1.19 96 1004.4